Regional Weather Roundup
Issued by NWS

Home | Current Version | Previous Version | Graphics & Text | Print | Product List | Glossary On
Versions: 1 2 3 4 5 6 7 8 9 10 11 12 13 14 15 16 17 18 19 20 21 22 23 24 25 26 27 28 29 30 31 32 33 34 35 36 37 38 39 40 41 42 43 44 45 46 47 48 49 50
000
ASUS43 KDTX 191201
RWRMI
MICHIGAN HOURLY REGIONAL WEATHER ROUNDUP
NATIONAL WEATHER SERVICE DETROIT/PONTIAC MI
700 AM EST MON FEB 19 2018

NOTE: "FAIR" INDICATES FEW OR NO CLOUDS BELOW 12,000 FEET WITH NO
SIGNIFICANT WEATHER AND/OR OBSTRUCTION TO VISIBILITY.

MIZ047>049-052>055-059>063-066>070-074>076-081>083-191300-
SOUTHEAST LOWER MICHIGAN

CITY           SKY/WX    TMP DP  RH WIND       PRES   REMARKS
ADRIAN         CLOUDY    33  32  96 S3        29.98F FOG
6HR MIN TEMP:  29; 6HR MAX TEMP:  33; 6HR PCP:  0.09;

ALMA           CLOUDY    34  32  91 CALM      29.91F
6HR MIN TEMP:  32; 6HR MAX TEMP:  34;

ANN ARBOR      CLOUDY    33  31  92 SE5       29.98S WCI  29
BAD AXE        CLOUDY    33  29  83 S13       29.96F WCI  24
6HR MIN TEMP:  31; 6HR MAX TEMP:  33;

CARO           CLOUDY    35  30  81 SE7       29.94F WCI  29
DETROIT CITY   CLOUDY    35  30  82 S3        29.99F
6HR MIN TEMP:  31; 6HR MAX TEMP:  35; 6HR PCP: TRACE;

DETROIT        CLOUDY    34  32  92 S6        29.99F WCI  29
6HR MIN TEMP:  32; 6HR MAX TEMP:  34; 6HR PCP:  0.03;

FLINT          CLOUDY    37  31  78 S10       29.94F WCI  30
6HR MIN TEMP:  34; 6HR MAX TEMP:  37; 6HR PCP:  0.01;

GROSSE ILE     LGT RAIN  34  32  91 SE9       29.98F WCI  27
6HR MIN TEMP:  31; 6HR MAX TEMP:  35; 6HR PCP:  0.04;

HILLSDALE      CLOUDY    34  32  93 S7        29.94S FOG     WCI  28
HOWELL         CLOUDY    36  32  87 S7        29.94F WCI  30
6HR MIN TEMP:  33; 6HR MAX TEMP:  36;


CITY           SKY/WX    TMP DP  RH WIND       PRES   REMARKS
JACKSON        CLOUDY    37  35  92 S6        29.94S FOG     WCI  32
6HR MIN TEMP:  35; 6HR MAX TEMP:  38; 6HR PCP: TRACE;

LAMBERTVILLE   LGT RAIN  36  34  93 S5        29.99S WCI  32
6HR MIN TEMP:  33; 6HR MAX TEMP:  36;

LANSING        CLOUDY    37  33  85 S6        29.93F WCI  32
6HR MIN TEMP:  33; 6HR MAX TEMP:  37; 6HR PCP: TRACE;

LAPEER         CLOUDY    35  31  85 SE5       29.96F WCI  31
6HR MIN TEMP:  32; 6HR MAX TEMP:  36;

MASON          CLOUDY    38  32  78 S6        29.94S WCI  33
6HR MIN TEMP:  34; 6HR MAX TEMP:  38;

MONROE         MIX PCPN  34  32  93 SE3       29.98S
6HR MIN TEMP:  30; 6HR MAX TEMP:  34; 6HR PCP:  0.08;

MT. CLEMENS    LGT RAIN  33  33 100 SE6       29.97F WCI  28
6HR MIN TEMP:  27; 6HR MAX TEMP:  33; 6HR PCP: TRACE;

PONTIAC        CLOUDY    34  30  85 S7        29.96F WCI  28
6HR MIN TEMP:  32; 6HR MAX TEMP:  35; 6HR PCP:  0.01;

PORT HOPE        N/A     34  28  79 S8        29.94F WCI  27
6HR MIN TEMP:  31; 6HR MAX TEMP:  34;

PORT HURON     LGT RAIN  34  28  80 SE8       30.00F WCI  27
TRI CITIES     CLOUDY    37  30  75 S10       29.93F WCI  30
6HR MIN TEMP:  32; 6HR MAX TEMP:  37;

MIDLAND        CLOUDY    36  30  78 S6        29.92S WCI  32
6HR MIN TEMP:  32; 6HR MAX TEMP:  36;

TROY           MOCLDY    35  31  85 CALM      30.00F
SAGINAW HB     CLOUDY    36  32  87 S8        29.93F WCI  29
$$
MIZ043>046-050>051-056>058-064>065-071>073-077>080-191300-
SOUTHWEST LOWER MICHIGAN

CITY           SKY/WX    TMP DP  RH WIND       PRES   REMARKS
BATTLE CREEK   CLOUDY    37  35  92 S9        29.91F FOG     WCI  30
6HR MIN TEMP:  36; 6HR MAX TEMP:  38; 6HR PCP:  0.01;

BENTON HARBOR  CLOUDY    40  38  93 S6        29.91R FOG
6HR MIN TEMP:  40; 6HR MAX TEMP:  42; 6HR PCP:  0.01;

BIG RAPIDS     CLOUDY    33  28  83 CALM      29.89R
6HR MIN TEMP:  30; 6HR MAX TEMP:  33;

COLDWATER      CLOUDY    38  37  99 S6        29.93S WCI  33
6HR MIN TEMP:  34; 6HR MAX TEMP:  38;

HOLLAND        CLOUDY    40  36  86 S10       29.91R WCI  33
6HR MIN TEMP:  38; 6HR MAX TEMP:  41; 6HR PCP: TRACE;

GRAND RAPIDS   CLOUDY    39  33  79 S10       29.91R WCI  32
6HR MIN TEMP:  37; 6HR MAX TEMP:  40; 6HR PCP: TRACE;

IONIA          CLOUDY    37  32  82 S9        29.90S WCI  30
6HR MIN TEMP:  32; 6HR MAX TEMP:  37;

KALAMAZOO      LGT RAIN  38  35  89 S12       29.93R FOG     WCI  30
6HR MIN TEMP:  37; 6HR MAX TEMP:  40; 6HR PCP:  0.01;

LUDINGTON      CLOUDY    40  32  75 S8        29.87S WCI  34
6HR MIN TEMP:  35; 6HR MAX TEMP:  40;

MARSHALL       CLOUDY    37  36  99 S7        29.92F FOG     WCI  31
6HR MIN TEMP:  35; 6HR MAX TEMP:  38;

MOUNT PLEASANT CLOUDY    34  30  84 CALM      29.90F
6HR MIN TEMP:  32; 6HR MAX TEMP:  35;

MUSKEGON       CLOUDY    41  33  73 S15       29.90R
6HR MIN TEMP:  38; 6HR MAX TEMP:  42;

SOUTH HAVEN    CLOUDY    39  37  93 S5        29.92R FOG
$$
MIZ016>042-191300-
NORTHERN LOWER MICHIGAN

CITY           SKY/WX    TMP DP  RH WIND       PRES   REMARKS
ALPENA         MOCLDY    31  28  89 S7        29.91F WCI  24
6HR MIN TEMP:  25; 6HR MAX TEMP:  33;

BEAVER ISLAND  CLOUDY    32  28  85 CALM      29.89R
6HR MIN TEMP:  32; 6HR MAX TEMP:  36;

BELLAIRE       CLOUDY    34  31  87 S5        29.90R WCI  30
6HR MIN TEMP:  28; 6HR MAX TEMP:  34;

CADILLAC       CLOUDY    34  30  86 CALM      29.87R
CHARLEVOIX     CLOUDY    35  29  79 S6        29.92R WCI  29
6HR MIN TEMP:  32; 6HR MAX TEMP:  35;

FRANKFORT      CLOUDY    39  31  71 SE3       29.88R
GAYLORD        CLOUDY    30  28  92 S8        29.88R WCI  22
6HR MIN TEMP:  28; 6HR MAX TEMP:  30;

GRAYLING       CLOUDY    31  29  89 CALM      29.89R
6HR MIN TEMP:  28; 6HR MAX TEMP:  31;

HARBOR SPRINGS CLOUDY    33  28  82 CALM      29.89R
HOUGHTON LAKE  CLOUDY    32  28  85 S8        29.90R WCI  25
6HR MIN TEMP:  28; 6HR MAX TEMP:  32;

MANISTEE       CLOUDY    37  30  75 E3        29.87R
OSCODA         CLOUDY    32  27  80 S8        29.93F WCI  25
6HR MIN TEMP:  29; 6HR MAX TEMP:  32;

PELLSTON       CLOUDY    27  24  89 CALM      29.89R
6HR MIN TEMP:  26; 6HR MAX TEMP:  37;

ROGERS CITY    FAIR      31  27  85 S6        29.90S WCI  25
TRAVERSE CITY  CLOUDY    39  30  70 VRB3      29.88R
6HR MIN TEMP:  33; 6HR MAX TEMP:  40;

$$
MIZ007>008-015-191300-
EASTERN UPPER MICHIGAN

CITY           SKY/WX    TMP DP  RH WIND       PRES   REMARKS
KINROSS        CLOUDY    31  26  82 S6        29.90R WCI  25
6HR MIN TEMP:  30; 6HR MAX TEMP:  33;

MACKINAC ISLAN CLOUDY    32  26  77 SE6       29.89R WCI  26
6HR MIN TEMP:  32; 6HR MAX TEMP:  35;

NEWBERRY       CLOUDY    30  26  84 CALM      29.87S
6HR MIN TEMP:  30; 6HR MAX TEMP:  34;

S. S. MARIE    CLOUDY    33  25  72 E3        29.90R
6HR MIN TEMP:  33; 6HR MAX TEMP:  33;

MUNISING         N/A     33  30  88 NW12      29.89R WCI  24
6HR MIN TEMP:  33; 6HR MAX TEMP:  35;

$$
MIZ004>006-011>014-085-191300-
CENTRAL UPPER MICHIGAN

CITY           SKY/WX    TMP DP  RH WIND       PRES   REMARKS
MANISTIQUE     CLOUDY    31  30  95 CALM      29.88R
6HR MIN TEMP:  31; 6HR MAX TEMP:  34;

ESCANABA       CLOUDY    25  24  96 CALM      29.89R FOG
6HR MIN TEMP:  23; 6HR MAX TEMP:  33;

MENOMINEE      CLOUDY    30  28  92 CALM      29.87R FOG
6HR MIN TEMP:  28; 6HR MAX TEMP:  35;

SAWYER-GWINN   CLOUDY    25  23  93 N23       29.89R FOG     WCI  10
$$
MIZ001>003-009>011-084-191300-
WESTERN UPPER MICHIGAN

CITY           SKY/WX    TMP DP  RH WIND       PRES   REMARKS
IRON MOUNTAIN  CLOUDY    27  23  85 N7        29.84R WCI  19
6HR MIN TEMP:  24; 6HR MAX TEMP:  30;

HOUGHTON       FLURRIES  19  13  77 NE15      29.94S WCI   5
6HR MIN TEMP:  19; 6HR MAX TEMP:  26; 6HR PCP: TRACE;

COPPER HARBOR    N/A     19  14  81 E16G24    29.99R WCI   4
6HR MIN TEMP:  19; 6HR MAX TEMP:  27;

IRONWOOD       LGT SNOW  17  15  92 NE7       29.94S FOG     WCI   8
6HR MIN TEMP:  17; 6HR MAX TEMP:  24; 6HR PCP: TRACE;

$$

ABBREVIATIONS USED IN REMARKS
   TC - TEMPERATURE IN CELSIUS
  WCI - WIND CHILL INDEX
   HX - HEAT INDEX
  VSB - VISIBILITY





USA.gov is the U.S. government's official web portal to all federal, state and local government web resources and services.